When you browse on this site, cookies collect data to enhance your experience and personalize the content and advertising you see.
Visit our Privacy Policy to learn more. By continuing to use the site, you agree to this use of cookies and data.
EN

Hourly Weather Mariec

Today, 20 September, Sunday

Time Temperature Precipitation Wind Pressure Humidity
00:00 +3°C° 0 mm 3 mps 734 mmHg 96%
01:00 +3°C° 0 mm 3 mps 734 mmHg 96%
02:00 +3°C° 0 mm 3 mps 734 mmHg 96%
03:00 +3°C° 0 mm 2 mps 734 mmHg 96%
04:00 +3°C° 0 mm 2 mps 734 mmHg 97%
05:00 +3°C° 0 mm 2 mps 734 mmHg 97%
06:00 +2°C° 0 mm 3 mps 734 mmHg 97%
07:00 +3°C° 0.1 mm 3 mps 734 mmHg 95%
08:00 +4°C° 0.1 mm 4 mps 734 mmHg 92%
09:00 +5°C° 0.1 mm 4 mps 734 mmHg 90%
10:00 +5°C° 0.3 mm 5 mps 734 mmHg 88%
11:00 +5°C° 0.3 mm 5 mps 734 mmHg 86%
12:00 +5°C° 0.3 mm 6 mps 734 mmHg 84%
13:00 +5°C° 0.1 mm 6 mps 735 mmHg 82%
14:00 +5°C° 0.1 mm 6 mps 735 mmHg 81%
15:00 +5°C° 0.1 mm 6 mps 736 mmHg 79%
16:00 +5°C° 0.2 mm 6 mps 736 mmHg 81%
17:00 +5°C° 0.2 mm 5 mps 736 mmHg 83%
18:00 +5°C° 0.2 mm 5 mps 736 mmHg 84%
19:00 +3°C° 0 mm 5 mps 737 mmHg 86%
20:00 +3°C° 0 mm 5 mps 737 mmHg 88%
21:00 +3°C° 0 mm 5 mps 737 mmHg 90%
22:00 +3°C° 0.1 mm 5 mps 738 mmHg 90%
23:00 +3°C° 0.1 mm 5 mps 738 mmHg 90%

Tomorrow, 21 September, Monday

Time Temperature Precipitation Wind Pressure Humidity
00:00 +3°C° 0.1 mm 5 mps 738 mmHg 90%
01:00 +3°C° 0.1 mm 6 mps 738 mmHg 89%
02:00 +3°C° 0.1 mm 6 mps 739 mmHg 89%
03:00 +2°C° 0.1 mm 6 mps 739 mmHg 88%
04:00 +2°C° 0 mm 5 mps 739 mmHg 88%
05:00 +2°C° 0 mm 5 mps 740 mmHg 88%
06:00 +1°C° 0 mm 5 mps 740 mmHg 88%
07:00 +2°C° 0 mm 5 mps 740 mmHg 86%
08:00 +3°C° 0 mm 5 mps 740 mmHg 83%
09:00 +5°C° 0 mm 5 mps 741 mmHg 81%
10:00 +5°C° 0 mm 5 mps 740 mmHg 79%
11:00 +6°C° 0 mm 5 mps 740 mmHg 77%
12:00 +6°C° 0 mm 5 mps 740 mmHg 74%
13:00 +6°C° 0.4 mm 5 mps 739 mmHg 80%
14:00 +5°C° 0.4 mm 5 mps 739 mmHg 86%
15:00 +4°C° 0.4 mm 6 mps 739 mmHg 91%
16:00 +4°C° 0.9 mm 6 mps 738 mmHg 92%
17:00 +5°C° 0.9 mm 6 mps 738 mmHg 93%
18:00 +6°C° 0.9 mm 5 mps 738 mmHg 93%
19:00 +6°C° 0.2 mm 5 mps 738 mmHg 92%
20:00 +6°C° 0.2 mm 5 mps 739 mmHg 91%
21:00 +6°C° 0.2 mm 5 mps 739 mmHg 90%
22:00 +6°C° 0 mm 5 mps 739 mmHg 91%
23:00 +5°C° 0 mm 4 mps 740 mmHg 93%

Day after tomorrow, 22 September, Tuesday

Time Temperature Precipitation Wind Pressure Humidity
00:00 +5°C° 0 mm 4 mps 740 mmHg 94%
01:00 +4°C° 0 mm 4 mps 740 mmHg 95%
02:00 +4°C° 0 mm 4 mps 741 mmHg 95%
03:00 +4°C° 0 mm 4 mps 741 mmHg 96%
04:00 +4°C° 0 mm 4 mps 742 mmHg 96%
05:00 +4°C° 0 mm 4 mps 742 mmHg 96%
06:00 +4°C° 0 mm 4 mps 742 mmHg 96%
07:00 +5°C° 0 mm 4 mps 742 mmHg 93%
08:00 +6°C° 0 mm 5 mps 742 mmHg 89%
09:00 +8°C° 0 mm 5 mps 742 mmHg 86%
10:00 +9°C° 0 mm 5 mps 741 mmHg 85%
11:00 +10°C° 0 mm 6 mps 741 mmHg 83%
12:00 +11°C° 0 mm 6 mps 741 mmHg 82%
13:00 +11°C° 0 mm 6 mps 740 mmHg 82%
14:00 +12°C° 0 mm 7 mps 739 mmHg 81%
15:00 +12°C° 0 mm 7 mps 739 mmHg 81%
16:00 +12°C° 0 mm 7 mps 738 mmHg 81%
17:00 +13°C° 0 mm 6 mps 738 mmHg 80%
18:00 +13°C° 0 mm 6 mps 738 mmHg 80%
19:00 +13°C° 0 mm 6 mps 738 mmHg 80%
20:00 +13°C° 0 mm 6 mps 737 mmHg 81%
21:00 +13°C° 0 mm 6 mps 737 mmHg 82%
22:00 +13°C° 0 mm 6 mps 737 mmHg 82%
23:00 +11°C° 0 mm 6 mps 737 mmHg 81%

23 September, Wednesday

Time Temperature Precipitation Wind Pressure Humidity
00:00 +11°C° 0 mm 6 mps 737 mmHg 81%
01:00 +11°C° 0 mm 6 mps 737 mmHg 83%
02:00 +10°C° 0 mm 6 mps 738 mmHg 85%
03:00 +9°C° 0 mm 6 mps 738 mmHg 86%
04:00 +9°C° 0 mm 6 mps 739 mmHg 87%
05:00 +9°C° 0 mm 6 mps 739 mmHg 88%
06:00 +8°C° 0 mm 6 mps 740 mmHg 89%
07:00 +9°C° 0 mm 6 mps 740 mmHg 79%
08:00 +9°C° 0 mm 7 mps 741 mmHg 69%
09:00 +10°C° 0 mm 8 mps 742 mmHg 59%
10:00 +10°C° 0 mm 7 mps 742 mmHg 57%
11:00 +11°C° 0 mm 7 mps 743 mmHg 55%
12:00 +11°C° 0 mm 6 mps 743 mmHg 53%
13:00 +13°C° 0 mm 6 mps 744 mmHg 53%
14:00 +13°C° 0 mm 6 mps 744 mmHg 54%
15:00 +13°C° 0 mm 6 mps 745 mmHg 54%
16:00 +10°C° 0 mm 5 mps 745 mmHg 61%
17:00 +10°C° 0 mm 4 mps 746 mmHg 67%
18:00 +9°C° 0 mm 3 mps 746 mmHg 73%
19:00 +8°C° 0 mm 2 mps 747 mmHg 76%
20:00 +7°C° 0 mm 2 mps 747 mmHg 79%
21:00 +7°C° 0 mm 2 mps 748 mmHg 82%
22:00 +6°C° 0 mm 2 mps 748 mmHg 83%
23:00 +7°C° 0 mm 1 mps 748 mmHg 84%

24 September, Thursday

Time Temperature Precipitation Wind Pressure Humidity
00:00 +7°C° 0 mm 1 mps 749 mmHg 85%
01:00 +6°C° 0 mm 1 mps 749 mmHg 86%
02:00 +6°C° 0 mm 1 mps 750 mmHg 87%
03:00 +5°C° 0 mm 0 mps 750 mmHg 88%
04:00 +5°C° 0 mm 0 mps 750 mmHg 88%
05:00 +6°C° 0 mm 1 mps 751 mmHg 88%
06:00 +6°C° 0 mm 1 mps 751 mmHg 87%
07:00 +8°C° 0 mm 1 mps 751 mmHg 80%
08:00 +9°C° 0 mm 1 mps 752 mmHg 73%
09:00 +11°C° 0 mm 1 mps 752 mmHg 65%
10:00 +13°C° 0 mm 1 mps 752 mmHg 60%
11:00 +14°C° 0 mm 1 mps 752 mmHg 55%
12:00 +15°C° 0 mm 1 mps 752 mmHg 50%
13:00 +15°C° 0 mm 2 mps 752 mmHg 50%
14:00 +16°C° 0 mm 2 mps 752 mmHg 50%
15:00 +16°C° 0 mm 2 mps 752 mmHg 51%
16:00 +14°C° 0 mm 2 mps 752 mmHg 57%
17:00 +12°C° 0 mm 2 mps 752 mmHg 63%
18:00 +10°C° 0 mm 2 mps 752 mmHg 69%
19:00 +9°C° 0 mm 2 mps 752 mmHg 71%
20:00 +9°C° 0 mm 2 mps 753 mmHg 74%
21:00 +8°C° 0 mm 2 mps 753 mmHg 76%
22:00 +8°C° 0 mm 2 mps 753 mmHg 76%
23:00 +8°C° 0 mm 2 mps 753 mmHg 75%

25 September, Friday

Time Temperature Precipitation Wind Pressure Humidity
00:00 +7°C° 0 mm 2 mps 753 mmHg 74%
01:00 +7°C° 0 mm 2 mps 754 mmHg 76%
02:00 +7°C° 0 mm 2 mps 754 mmHg 78%
03:00 +7°C° 0 mm 2 mps 754 mmHg 80%
04:00 +7°C° 0 mm 2 mps 754 mmHg 82%
05:00 +6°C° 0 mm 2 mps 754 mmHg 83%
06:00 +6°C° 0 mm 2 mps 754 mmHg 84%
07:00 +8°C° 0 mm 3 mps 754 mmHg 79%
08:00 +10°C° 0 mm 3 mps 754 mmHg 73%
09:00 +12°C° 0 mm 3 mps 754 mmHg 68%
10:00 +13°C° 0 mm 3 mps 755 mmHg 65%
11:00 +16°C° 0 mm 3 mps 755 mmHg 62%
12:00 +17°C° 0 mm 3 mps 755 mmHg 60%
13:00 +17°C° 0 mm 3 mps 755 mmHg 60%
14:00 +17°C° 0 mm 3 mps 755 mmHg 60%
15:00 +17°C° 0 mm 3 mps 755 mmHg 61%
16:00 +16°C° 0 mm 3 mps 755 mmHg 66%
17:00 +13°C° 0 mm 3 mps 755 mmHg 72%
18:00 +12°C° 0 mm 2 mps 755 mmHg 77%
19:00 +12°C° 0 mm 2 mps 755 mmHg 77%
20:00 +10°C° 0 mm 2 mps 755 mmHg 77%
21:00 +9°C° 0 mm 2 mps 755 mmHg 76%
22:00 +9°C° 0 mm 2 mps 755 mmHg 77%
23:00 +9°C° 0 mm 2 mps 755 mmHg 78%
Show more